Location: Plainartige
(45.6866°N, 1.7993°E)
Time: 04:27:33
(UTC+00:00)

Vanguard 1 - Pass Details

Date: 25 May 2022
Orbit: 649 x 3833 km, 34.2° (Epoch: 06 July)

Event Time Altitude Azimuth Distance (km) Brightness Sun altitude
Exits shadow 00:14:39 30° 172° (S) 3,904 12.5 -23.2°
Maximum altitude 00:19:49 35° 142° (SE) 4,041 12.8 -23.1°
Drops below altitude 10° 00:37:41 10° 87° (E) 6,807 14.5 -22.5°
Sets 00:44:02 0° 80° (E) 7,967 15.0 -22.3°
